Location: *
(39.6167°S, 171.5333°W)
Time: 06:20:37
(UTC+00:00)

IRIDIUM 103 - Pass Details

Date: 13 May 2021
Orbit: 776 x 779 km, 86.4° (Epoch: 16 June)

Event Time Altitude Azimuth Distance (km) Brightness Sun altitude
Rises 17:49:10 0° 358° (N) 3,247 7.8 -6.8°
Reaches altitude 10° 17:51:29 10° 358° (N) 2,328 7.0 -6.4°
Maximum altitude 17:56:43 87° 270° (W) 793 4.4 -5.4°
Drops below altitude 10° 18:02:01 10° 178° (S) 2,361 6.7 -4.5°
Sets 18:04:24 0° 177° (S) 3,296 7.4 -4.0°
